User: anonymous   Login
Location: Kelshall
(52.0000°N, 0.0500°W)
Time: 11:14:04
(UTC+00:00)
Language:

Meteor 1-11 - Orbit

View from above orbital plane
View from above orbital plane
View from above satellite
View from above satellite

Ground track
Ground track

The orbit data is extracted from the following two-line orbital elements,

1 05917U 72022A   21263.87229211 -.00000023  00000-0 -20640-4 0  9994
2 05917  81.2227 170.2688 0030244 169.0406 191.1430 14.08709002540781
Epoch (UTC): 20 September 2021 20:56:06
Eccentricity: 0.0030244
inclination: 81.2227°
perigee height: 842 km
apogee height: 885 km
right ascension of ascending node: 170.2688°
argument of perigee: 169.0406°
revolutions per day: 14.08709002
mean anomaly at epoch: 191.1430°
orbit number at epoch: 54078

The dashed part of the orbit path shows where the satellite is in the earth's shadow,  

DLR